FW3706 Weather Reports


Display with metric or nautical units.
time (UTC)temp
F
wind
direction
speed
MPH
gust
MPH
rain 1hr
in
rain 24hr
in
rain mn
in
humidity
%
barometer
mb
20260503012003 86 6 0.0 4.0 0.00 0.00 0.00 18 1011.0
20260503011508 86 7 0.0 4.0 0.00 0.00 0.00 18 1011.1
20260503011001 86 8 1.0 4.0 0.00 0.00 0.00 18 1011.2
20260503010502 86 8 1.0 4.0 0.00 0.00 0.00 18 1011.2
20260503010008 86 7 0.0 5.0 0.00 0.00 0.00 18 1011.2
20260503005501 86 8 2.0 6.0 0.00 0.00 0.00 18 1011.2
20260503005005 86 8 2.0 6.0 0.00 0.00 0.00 18 1011.2
20260503004509 87 8 3.0 8.0 0.00 0.00 0.00 18 1011.2
20260503004004 87 3 3.0 8.0 0.00 0.00 0.00 18 1011.1
20260503003504 87 11 3.0 7.0 0.00 0.00 0.00 18 1011.1
20260503003006 87 18 3.0 8.0 0.00 0.00 0.00 18 1011.2
20260503002502 87 16 3.0 8.0 0.00 0.00 0.00 17 1011.2
20260503002002 87 8 4.0 8.0 0.00 0.00 0.00 18 1011.2
20260503001511 87 56 0.0 6.0 0.00 0.00 0.00 17 1011.2
20260503001001 88 174 0.0 6.0 0.00 0.00 0.00 17 1011.3
20260503000501 88 72 3.0 6.0 0.00 0.00 0.00 17 1011.3
20260503000010 88 94 0.0 6.0 0.00 0.00 0.00 17 1011.2
20260502235501 89 98 2.0 5.0 0.00 0.00 0.00 17 1011.2
20260502235002 89 109 2.0 5.0 0.00 0.00 0.00 17 1011.3
20260502234508 89 119 1.0 5.0 0.00 0.00 0.00 17 1011.3
20260502234009 89 104 3.0 7.0 0.00 0.00 0.00 17 1011.3
20260502233506 88 118 1.0 7.0 0.00 0.00 0.00 16 1011.3
20260502233011 89 98 3.0 7.0 0.00 0.00 0.00 16 1011.4
20260502232503 90 179 2.0 7.0 0.00 0.00 0.00 15 1011.5
20260502232003 90 103 2.0 8.0 0.00 0.00 0.00 16 1011.5
20260502231518 89 160 2.0 8.0 0.00 0.00 0.00 16 1011.4
20260502231003 88 163 2.0 6.0 0.00 0.00 0.00 16 1011.6
20260502230503 88 286 0.0 7.0 0.00 0.00 0.00 15 1011.8
20260502230008 89 290 2.0 8.0 0.00 0.00 0.00 15 1011.7
20260502225504 89 173 2.0 8.0 0.00 0.00 0.00 14 1011.7
20260502225004 90 205 3.0 8.0 0.00 0.00 0.00 14 1011.8
20260502224511 90 212 2.0 5.0 0.00 0.00 0.00 13 1011.8
20260502224004 91 224 0.0 10.0 0.00 0.00 0.00 13 1011.8
20260502223506 90 236 4.0 10.0 0.00 0.00 0.00 13 1011.9
20260502223012 90 193 5.0 10.0 0.00 0.00 0.00 14 1011.9
20260502222504 90 184 3.0 7.0 0.00 0.00 0.00 14 1011.9
20260502222003 90 218 1.0 5.0 0.00 0.00 0.00 12 1011.9
20260502221513 90 220 0.0 10.0 0.00 0.00 0.00 13 1011.9
20260502221003 88 207 3.0 10.0 0.00 0.00 0.00 13 1012.0
20260502220503 90 156 2.0 7.0 0.00 0.00 0.00 12 1012.1
20260502220013 90 30 3.0 9.0 0.00 0.00 0.00 12 1012.2
20260502215504 89 84 3.0 9.0 0.00 0.00 0.00 13 1012.2
20260502215004 89 72 4.0 9.0 0.00 0.00 0.00 13 1012.3
20260502214511 89 162 3.0 9.0 0.00 0.00 0.00 13 1012.5
20260502214004 89 169 3.0 8.0 0.00 0.00 0.00 13 1012.5
20260502213504 89 148 3.0 8.0 0.00 0.00 0.00 13 1012.6
20260502213012 89 130 4.0 8.0 0.00 0.00 0.00 13 1012.8
20260502212504 91 205 4.0 10.0 0.00 0.00 0.00 12 1012.8
20260502212005 90 292 5.0 10.0 0.00 0.00 0.00 12 1012.7
20260502211514 89 160 5.0 8.0 0.00 0.00 0.00 11 1012.7
20260502211006 89 188 1.0 6.0 0.00 0.00 0.00 12 1012.9
20260502210505 88 156 0.0 9.0 0.00 0.00 0.00 12 1012.9
20260502210014 88 122 3.0 11.0 0.00 0.00 0.00 12 1013.1
20260502205505 90 188 6.0 11.0 0.00 0.00 0.00 11 1013.2
20260502205008 89 198 4.0 8.0 0.00 0.00 0.00 13 1013.2
20260502204517 88 127 2.0 10.0 0.00 0.00 0.00 13 1013.3
20260502204004 87 67 3.0 12.0 0.00 0.00 0.00 15 1013.4
20260502203508 88 141 6.0 12.0 0.00 0.00 0.00 14 1013.5
20260502203016 88 129 3.0 11.0 0.00 0.00 0.00 15 1013.5
20260502202504 88 103 4.0 11.0 0.00 0.00 0.00 16 1013.5
20260502202011 88 112 6.0 11.0 0.00 0.00 0.00 16 1013.7
20260502201512 88 141 1.0 11.0 0.00 0.00 0.00 17 1013.7
20260502201006 88 105 4.0 12.0 0.00 0.00 0.00 17 1013.7
20260502200507 89 139 5.0 12.0 0.00 0.00 0.00 17 1013.8
20260502200015 87 143 2.0 8.0 0.00 0.00 0.00 17 1013.8
20260502195504 86 60 4.0 9.0 0.00 0.00 0.00 18 1013.9
20260502195004 87 14 5.0 9.0 0.00 0.00 0.00 18 1014.1
20260502194515 86 13 2.0 10.0 0.00 0.00 0.00 19 1013.9
20260502194007 86 5 3.0 10.0 0.00 0.00 0.00 20 1014.1
20260502193507 87 89 3.0 10.0 0.00 0.00 0.00 19 1014.3
20260502193016 87 2 2.0 11.0 0.00 0.00 0.00 19 1014.2
20260502192503 86 10 5.0 11.0 0.00 0.00 0.00 19 1014.0
20260502192012 86 6 1.0 10.0 0.00 0.00 0.00 19 1014.3
20260502191518 87 120 4.0 10.0 0.00 0.00 0.00 19 1014.4
20260502191005 87 185 3.0 11.0 0.00 0.00 0.00 22 1014.4
20260502190509 86 355 1.0 11.0 0.00 0.00 0.00 20 1014.4
20260502190024 86 192 3.0 9.0 0.00 0.00 0.00 22 1014.5
20260502185504 86 174 3.0 9.0 0.00 0.00 0.00 24 1014.8
20260502185008 85 96 5.0 9.0 0.00 0.00 0.00 22 1014.7
20260502184516 85 141 5.0 9.0 0.00 0.00 0.00 23 1014.8
20260502184005 85 148 2.0 10.0 0.00 0.00 0.00 24 1015.0
20260502183506 85 186 4.0 14.0 0.00 0.00 0.00 25 1015.2
20260502183016 85 149 6.0 14.0 0.00 0.00 0.00 25 1015.1
20260502182507 84 1 3.0 11.0 0.00 0.00 0.00 26 1015.2
20260502182009 84 13 3.0 11.0 0.00 0.00 0.00 26 1015.4
20260502181519 84 10 4.0 11.0 0.00 0.00 0.00 25 1015.5
20260502181007 83 15 5.0 10.0 0.00 0.00 0.00 26 1015.5
20260502180503 84 18 4.0 10.0 0.00 0.00 0.00 26 1015.6
20260502170507 80 62 2.0 12.0 0.00 0.00 0.00 30 1015.8
20260502164004 79 9 6.0 14.0 0.00 0.00 0.00 31 1015.8
20260502163508 79 16 3.0 16.0 0.00 0.00 0.00 31 1015.8
20260502163006 79 5 5.0 16.0 0.00 0.00 0.00 31 1015.8
20260502162504 78 5 6.0 13.0 0.00 0.00 0.00 31 1015.7
20260502162004 78 6 7.0 13.0 0.00 0.00 0.00 31 1015.7
20260502161504 78 4 8.0 17.0 0.00 0.00 0.00 31 1015.7
20260502161008 78 15 9.0 17.0 0.00 0.00 0.00 32 1015.6
20260502160503 78 4 8.0 18.0 0.00 0.00 0.00 32 1015.6
20260502152005 76 4 8.0 16.0 0.00 0.00 0.00 34 1015.2
20260502151523 76 4 9.0 18.0 0.00 0.00 0.00 34 1015.1
20260502151005 76 4 7.0 18.0 0.00 0.00 0.00 34 1015.1
20260502150503 76 4 6.0 12.0 0.00 0.00 0.00 34 1015.0
20260502130502 60 3 0.0 2.0 0.00 0.00 0.00 41 1014.0
20260502123501 59 3 0.0 2.0 0.00 0.00 0.00 41 1013.7
20260502123042 59 3 0.0 1.0 0.00 0.00 0.00 41 1013.6
20260502122507 60 3 0.0 0.0 0.00 0.00 0.00 40 1013.7
20260502122001 60 3 0.0 0.0 0.00 0.00 0.00 40 1013.6
20260502121524 60 3 0.0 0.0 0.00 0.00 0.00 40 1013.5
20260502121005 60 3 0.0 0.0 0.00 0.00 0.00 39 1013.5
20260502120502 61 3 0.0 2.0 0.00 0.00 0.00 39 1013.6
20260502115508 61 3 1.0 3.0 0.00 0.00 0.00 38 1013.4
20260502115003 62 3 1.0 3.0 0.00 0.00 0.00 37 1013.5
20260502114524 62 3 1.0 4.0 0.00 0.00 0.00 37 1013.4
20260502114004 62 3 1.0 4.0 0.00 0.00 0.00 37 1013.3
20260502113504 62 3 1.0 4.0 0.00 0.00 0.00 37 1013.3
20260502113026 62 2 2.0 5.0 0.00 0.00 0.00 37 1013.3
20260502112508 62 2 2.0 5.0 0.00 0.00 0.00 37 1013.3
20260502112002 62 2 1.0 4.0 0.00 0.00 0.00 37 1013.4
20260502111530 62 1 2.0 4.0 0.00 0.00 0.00 37 1013.5
20260502111005 62 1 1.0 3.0 0.00 0.00 0.00 36 1013.6
20260502110502 62 1 1.0 3.0 0.00 0.00 0.00 36 1013.6
20260502110022 63 1 1.0 3.0 0.00 0.00 0.00 35 1013.6
20260502105506 63 1 1.0 2.0 0.00 0.00 0.00 35 1013.5
20260502105009 64 1 0.0 0.0 0.00 0.00 0.00 34 1013.6
20260502104521 64 1 0.0 0.0 0.00 0.00 0.00 33 1013.7
20260502104005 64 1 0.0 1.0 0.00 0.00 0.00 33 1013.6
20260502103510 65 1 0.0 1.0 0.00 0.00 0.00 33 1013.5
20260502103023 65 1 0.0 3.0 0.00 0.00 0.00 32 1013.4
20260502102507 65 1 0.0 3.0 0.00 0.00 0.00 32 1013.3
20260502102021 65 1 2.0 3.0 0.00 0.00 0.00 32 1013.2
20260502101524 66 10 1.0 3.0 0.00 0.00 0.00 32 1013.3
20260502101004 65 10 0.0 4.0 0.00 0.00 0.00 32 1013.3
20260502100509 65 10 0.0 5.0 0.00 0.00 0.00 32 1013.3
20260502091523 66 3 1.0 4.0 0.00 0.00 0.00 31 1013.0
20260502091006 66 3 1.0 4.0 0.00 0.00 0.00 31 1013.1
20260502090508 66 3 2.0 4.0 0.00 0.00 0.00 31 1013.1
20260502071526 67 10 0.0 1.0 0.00 0.00 0.00 31 1013.3
20260502071004 67 10 0.0 1.0 0.00 0.00 0.00 30 1013.3
20260502070511 67 10 0.0 1.0 0.00 0.00 0.00 30 1013.3
20260502070025 68 10 0.0 1.0 0.00 0.00 0.00 30 1013.3
20260502065504 68 10 0.0 2.0 0.00 0.00 0.00 30 1013.3
20260502065014 68 10 0.0 2.0 0.00 0.00 0.00 30 1013.4
20260502064505 68 10 0.0 2.0 0.00 0.00 0.00 29 1013.4
20260502064004 69 10 0.0 1.0 0.00 0.00 0.00 28 1013.3
20260502063503 70 10 0.0 2.0 0.00 0.00 0.00 28 1013.3
20260502063003 70 10 0.0 2.0 0.00 0.00 0.00 28 1013.2
20260502062504 71 10 0.0 2.0 0.00 0.00 0.00 27 1013.1
20260502062003 72 10 0.0 2.0 0.00 0.00 0.00 26 1012.9
20260502061503 72 10 0.0 2.0 0.00 0.00 0.00 26 1012.8
20260502061006 73 10 0.0 4.0 0.00 0.00 0.00 25 1012.8
20260502060503 73 10 0.0 4.0 0.00 0.00 0.00 25 1012.8
20260502060003 73 10 1.0 5.0 0.00 0.00 0.00 25 1012.8
20260502055504 73 10 1.0 5.0 0.00 0.00 0.00 25 1012.7
20260502055004 73 360 2.0 4.0 0.00 0.00 0.00 25 1012.7
20260502054504 74 360 0.0 4.0 0.00 0.00 0.00 24 1012.6
20260502054005 74 360 1.0 4.0 0.00 0.00 0.00 24 1012.6
20260502053506 75 360 0.0 5.0 0.00 0.00 0.00 24 1012.5
20260502053004 75 360 2.0 5.0 0.00 0.00 0.00 24 1012.5
20260502052506 75 1 2.0 6.0 0.00 0.00 0.00 24 1012.4
20260502052004 75 360 2.0 6.0 0.00 0.00 0.00 24 1012.5
20260502051525 75 1 1.0 7.0 0.00 0.00 0.00 24 1012.4
20260502051003 75 1 2.0 7.0 0.00 0.00 0.00 24 1012.4
20260502050505 75 10 3.0 5.0 0.00 0.00 0.00 24 1012.4
20260502050033 75 10 2.0 4.0 0.00 0.00 0.00 24 1012.4
20260502045504 75 10 1.0 4.0 0.00 0.00 0.00 24 1012.4
20260502045004 75 10 1.0 5.0 0.00 0.00 0.00 24 1012.3
20260502044522 75 10 2.0 5.0 0.00 0.00 0.00 24 1012.3
20260502044004 74 10 2.0 5.0 0.00 0.00 0.00 25 1012.2
20260502043505 74 10 2.0 5.0 0.00 0.00 0.00 25 1012.3
20260502043024 74 10 1.0 5.0 0.00 0.00 0.00 25 1012.2
20260502042506 74 10 1.0 5.0 0.00 0.00 0.00 25 1012.2
20260502042003 74 10 2.0 5.0 0.00 0.00 0.00 25 1012.2
20260502041527 74 9 1.0 4.0 0.00 0.00 0.00 25 1012.1
20260502041006 75 9 1.0 3.0 0.00 0.00 0.00 25 1012.0
20260502040503 75 9 0.0 4.0 0.00 0.00 0.00 25 1011.9
20260502040024 75 9 1.0 4.0 0.00 0.00 0.00 24 1011.9
20260502035503 75 9 1.0 3.0 0.00 0.00 0.00 24 1011.8
20260502035006 76 9 1.0 4.0 0.00 0.00 0.00 24 1011.7
20260502034523 76 9 1.0 4.0 0.00 0.00 0.00 24 1011.7
20260502034005 76 9 1.0 3.0 0.00 0.00 0.00 24 1011.6
20260502033505 76 9 1.0 3.0 0.00 0.00 0.00 23 1011.5
20260502033022 77 9 1.0 3.0 0.00 0.00 0.00 23 1011.4
20260502032504 77 9 1.0 3.0 0.00 0.00 0.00 23 1011.4
20260502032005 77 9 1.0 3.0 0.00 0.00 0.00 23 1011.2
20260502031522 77 9 1.0 3.0 0.00 0.00 0.00 23 1011.2
20260502031008 77 9 1.0 3.0 0.00 0.00 0.00 23 1011.0
20260502030504 77 9 1.0 3.0 0.00 0.00 0.00 23 1011.0
20260502030028 78 9 1.0 3.0 0.00 0.00 0.00 22 1010.9
20260502025504 78 9 1.0 3.0 0.00 0.00 0.00 22 1010.8
20260502025003 78 9 0.0 2.0 0.00 0.00 0.00 22 1010.8
20260502024526 78 9 1.0 2.0 0.00 0.00 0.00 22 1010.7
20260502024004 79 9 0.0 2.0 0.00 0.00 0.00 22 1010.7
20260502023504 79 9 0.0 2.0 0.00 0.00 0.00 21 1010.6
20260502023022 80 9 0.0 3.0 0.00 0.00 0.00 21 1010.6
20260502022504 80 9 1.0 3.0 0.00 0.00 0.00 21 1010.6
20260502022004 80 9 1.0 4.0 0.00 0.00 0.00 20 1010.7
20260502021520 80 9 1.0 4.0 0.00 0.00 0.00 20 1010.7
20260502021006 81 9 1.0 6.0 0.00 0.00 0.00 20 1010.5
20260502020504 81 9 2.0 6.0 0.00 0.00 0.00 20 1010.4
20260502020022 82 9 1.0 7.0 0.00 0.00 0.00 20 1010.3
20260502015506 82 9 2.0 8.0 0.00 0.00 0.00 19 1010.4
20260502015004 82 8 4.0 8.0 0.00 0.00 0.00 19 1010.3
20260502014519 82 9 3.0 8.0 0.00 0.00 0.00 19 1010.3
20260502014003 82 10 2.0 8.0 0.00 0.00 0.00 19 1010.3
20260502013503 83 10 2.0 8.0 0.00 0.00 0.00 18 1010.3
20260502013023 83 9 3.0 9.0 0.00 0.00 0.00 18 1010.3
20260502012506 83 8 3.0 9.0 0.00 0.00 0.00 18 1010.3